Orbital Elements at Epoch 2459000.5 (2020-May-31.0) TDB
Reference: JPL 17 (heliocentric ecliptic J2000)
Element | Value | Uncertainty (1-sigma) | Units |
e | .162411925014851 | 4.5842e-08 | |
a | 2.3340535979653 | 1.0141e-08 | au |
q | 1.954975460031916 | 1.1073e-07 | au |
i | 6.589262229674053 | 4.4783e-06 | deg |
node | 270.2007307999208 | 3.9658e-05 | deg |
peri | 87.97919922651802 | 4.1891e-05 | deg |
M | 274.8767370635248 | 1.4557e-05 | deg |
tp | 2459308.471427315305 (2021-Apr-03.97142732) | 5.3484e-05 | TDB |
period | 1302.46080811362 3.57 | 8.4887e-06 2.324e-08 | d yr |
n | .2763998715027711 | 1.8014e-09 | deg/d |
Q | 2.713131735898684 | 1.1788e-08 | au |
|
| | Orbit Determination Parameters
Additional Information
|